Flag for Germany Past Weather in Fürstenwalde/Spree, Brandenburg, Germany — Yesterday and Last 2 Weeks

Now
55 °F

Clear.


Feels Like: 53 °F
Forecast: 52 / 78 °F
Wind: 10 mph from Northwest

Location: Berlin-Schoenefeld

Current Time: Aug 30, 2016 at 3:31:55 AM

Latest Report: Aug 30, 2016 at 2:50 AM


Visibility: 10 mi

Pressure: 30.18 "Hg

Humidity: 77%

Dew Point: 48 °F

Location of Fürstenwalde/SpreeLocation

Past Weather in Fürstenwalde/Spree — Graph

°F

Fürstenwalde/Spree Temperature Yesterday

Maximum temperature yesterday: 75 °F (at 2:20 PM)
Minimum temperature yesterday: 61 °F (at 11:50 PM)
Average temperature yesterday: 68 °F

High & Low Weather Summary for the Past Weeks

 TemperatureHumidityPressure
High93 °F (Aug 28, 2:50 PM)100% (Aug 16, 10:20 PM)30.33 "Hg (Aug 16, 10:20 PM)
Low45 °F (Aug 17, 6:20 AM)17% (Aug 26, 4:50 PM)29.80 "Hg (Aug 18, 4:20 PM)
Average67 °F66%30.06 "Hg
* Reported Aug 15 2:20 AM — Aug 30 2:20 AM, Fürstenwalde/Spree, Weather by CustomWeather, © 2016

Note: Actual official high and low records may vary slightly from our data, if they occured in-between our weather recording intervals... More about our weather records

Advertising

Fürstenwalde/Spree Weather History for the Previous 24 Hours

Scroll right to see more
 ConditionsComfort  
Time TempWeatherWind HumidityBarometerVisibility
2:20 AM
Tue, Aug 30
55 °FClear.12 mph77%30.18 "Hg10 mi
1:50 AM57 °FClear.10 mph77%30.18 "Hg10 mi
1:20 AM57 °FClear.10 mph77%30.18 "Hg10 mi
12:50 AM59 °FClear.10 mph72%30.18 "Hg10 mi
12:20 AM61 °FClear.9 mph68%30.15 "Hg10 mi
11:50 PM
Mon, Aug 29
61 °FPassing clouds.10 mph68%30.15 "HgN/A
11:20 PM63 °FPassing clouds.12 mph64%30.15 "HgN/A
10:50 PM64 °FPassing clouds.10 mph64%30.12 "HgN/A
10:20 PM64 °FClear.10 mph64%30.12 "Hg10 mi
9:50 PM64 °FClear.9 mph64%30.09 "Hg10 mi
9:20 PM63 °FClear.9 mph73%30.09 "Hg10 mi
8:50 PM66 °FScattered clouds.10 mph64%30.07 "HgN/A
8:20 PM66 °FScattered clouds.8 mph64%30.07 "HgN/A
7:50 PM66 °FScattered clouds.10 mph64%30.07 "HgN/A
7:20 PM68 °FScattered clouds.14 mph60%30.04 "HgN/A
6:50 PM70 °FScattered clouds.16 mph53%30.04 "HgN/A
6:20 PM70 °FScattered clouds.16 mph57%30.04 "HgN/A
5:50 PM70 °FBroken clouds.10 mph60%30.04 "HgN/A
5:20 PM70 °FScattered showers. Broken clouds.15 mph57%30.01 "HgN/A
4:50 PM70 °FScattered showers. Partly sunny.16 mph60%30.01 "HgN/A
4:20 PM72 °FMild.20 mph57%30.01 "HgN/A
3:50 PM70 °FBroken clouds.23 mph60%30.01 "HgN/A
3:20 PM75 °FBroken clouds.17 mph47%29.98 "HgN/A
2:50 PM75 °FScattered clouds.17 mph47%29.98 "HgN/A
2:20 PM75 °FScattered showers. Scattered clouds.10 mph54%29.98 "HgN/A
1:50 PM70 °FScattered showers. Broken clouds.20 mph64%29.98 "HgN/A
1:20 PM72 °FPartly sunny.16 mph57%29.98 "HgN/A
12:50 PM72 °FBroken clouds.18 mph57%29.98 "HgN/A
12:20 PM72 °FScattered clouds.17 mph61%29.98 "HgN/A
11:50 AM72 °FScattered clouds.17 mph61%29.98 "HgN/A
11:20 AM70 °FScattered clouds.16 mph60%29.98 "HgN/A
10:50 AM68 °FPartly sunny.16 mph64%29.98 "HgN/A
10:20 AM70 °FPartly sunny.15 mph60%29.98 "HgN/A
9:50 AM68 °FPartly sunny.21 mph64%29.98 "HgN/A
9:20 AM68 °FScattered clouds.20 mph64%29.95 "HgN/A
8:50 AM68 °FPassing clouds.15 mph64%29.95 "HgN/A
8:20 AM66 °FPartly sunny.9 mph68%29.95 "HgN/A
7:50 AM64 °FSunny.7 mph78%29.95 "Hg10 mi
7:20 AM64 °FSunny.7 mph78%29.95 "Hg10 mi
6:50 AM64 °FClear.7 mph78%29.92 "Hg10 mi
6:20 AM66 °FClear.6 mph78%29.92 "Hg10 mi
5:50 AM64 °FClear.6 mph83%29.92 "Hg10 mi
5:20 AM64 °FClear.6 mph83%29.92 "Hg10 mi
4:50 AM66 °FClear.7 mph78%29.92 "Hg10 mi
4:20 AM66 °FClear.8 mph73%29.92 "Hg10 mi
3:50 AM68 °FPassing clouds.9 mph69%29.92 "HgN/A
3:20 AM68 °FPartly cloudy.12 mph78%29.92 "HgN/A
Weather by CustomWeather, © 2016

See weather overviewHow to use our weather pages